User: anonymous
Location: State Camp
(41.2367°N, 77.7828°W)
Time: 20:07:02
(UTC-04:00)
Language:

Cosmos 1674 Rocket - Orbit

View from above orbital plane
View from above orbital plane
View from above satellite
View from above satellite

Ground track
Ground track

The orbit data is extracted from the following two-line orbital elements,

1 15945U 85069B   14110.68632872  .00000684  00000-0  80301-4 0  6262
2 15945 082.5255 132.9390 0021524 126.1004 015.0278 14.83305654549996
Epoch (UTC): 20 April 2014 16:28:18
Eccentricity: 0.0021524
inclination: 82.5255°
perigee height: 604 km
apogee height: 634 km
right ascension of ascending node: 132.9390°
argument of perigee: 126.1004°
revolutions per day: 14.83305654
mean anomaly at epoch: 15.0278°
orbit number at epoch: 54999

The dashed part of the orbit path shows where the satellite is in the earth's shadow,  

DLR